Regional Weather Roundup
Issued by NWS

Home | Current Version | Previous Version | Text Only | Print | Product List | Glossary On
Versions: 1 2 3 4 5 6 7 8 9 10 11 12 13 14 15 16 17 18 19 20 21 22 23 24 25 26 27 28 29 30 31 32 33 34 35 36 37 38 39 40 41 42 43 44 45 46 47 48 49 50
000
ASUS44 KLIX 211512
RWRLA
LOUISIANA WEATHER ROUNDUP
NATIONAL WEATHER SERVICE NEW ORLEANS LA
900 AM CST TUE FEB 21 2017

NOTE: "FAIR" INDICATES FEW OR NO CLOUDS BELOW 12,000 FEET WITH NO
      SIGNIFICANT WEATHER AND/OR OBSTRUCTIONS TO VISIBILITY.
      SKY/WX - SKY CONDITION AND SIGNIFICANT WEATHER.
      TMP - AIR TEMPERATURE.    DP   - DEWPOINT TEMPERATURE.
      RH  - RELATIVE HUMIDITY.  PRES - PRESSURE.
      HX  - HEAT INDEX.         WCI  - WIND CHILL INDEX.

*  THESE STATIONS ARE NOT NWS OR FAA STATIONS AND ARE NOT UNDER
   NWS QUALITY CONTROL.

LAZ040-048-061>063-065-066-069-211600-
SOUTHEAST LOUISIANA

CITY           SKY/WX    TMP DP  RH WIND       PRES   REMARKS
N.O. AUDUBON   NOT AVBL
N.O. INTL ARPT CLOUDY    61  59  93 SW6       30.00R
N.O. LAKEFRONT CLOUDY    62  60  93 SW13      30.00R
N.O. DOWNTOWN*   N/A     62  59  90 SW3       30.01R
RESERVE*       CLOUDY    64  60  90 W8        29.99R
SLIDELL        CLOUDY    62  60  93 SW6       29.97R
BATON ROUGE    CLOUDY    62  59  90 SW8       29.98R
BOOTHVILLE     LGT RAIN  61  61 100 CALM      30.00R
BELLE CHASSE   CLOUDY    62  60  93 W7        30.00R
BOGALUSA*      CLOUDY    62  59  90 CALM      29.98R
GALLIANO*      LGT RAIN  63  58  86 NW5       30.00R
NEW ROADS*     CLOUDY    62  58  87 SW5       29.97R
GONZALES*      CLOUDY    61  59  93 SW5       29.98S
HAMMOND*       CLOUDY    61  59  94 W10       29.98R
HOUMA*         MOSUNNY   63  61  94 SW6       30.00
PORT FOURCHON* CLOUDY    64  59  82 SW9       30.00R

$$

LAZ041-044-053-054-211600-
SOUTHWEST LOUISIANA

CITY           SKY/WX    TMP DP  RH WIND       PRES   REMARKS
LAKE CHARLES   PTSUNNY   64  63  96 SW7       29.95S
LAFAYETTE      PTSUNNY   66  60  81 SW12      29.98R
PATTERSON      MOSUNNY   64  61  90 SW9       30.00R
SALT POINT       N/A     63  60  90 VRB5      29.99R
NEW IBERIA     SUNNY     65  59  81 S10       29.98R
CHENAULT AIRPK PTSUNNY   63  61  94 CALM      29.97R

$$

LAZ027-028-211600-
CENTRAL LOUISIANA

CITY           SKY/WX    TMP DP  RH WIND       PRES   REMARKS
FORT POLK      LGT RAIN  57  56  96 W6        29.96S FOG
ALEXANDRIA INT PTSUNNY   61  58  90 SW12      29.94R
ALEXANDRIA     CLOUDY    60  58  92 W8        29.95R

$$

LAZ001-002-211600-
NORTHWEST LOUISIANA

CITY           SKY/WX    TMP DP  RH WIND       PRES   REMARKS
SHREVEPORT     LGT RAIN  60  58  92 W7        29.93S
BARKSDALE AFB  CLOUDY    59  59 100 W5        29.93S
DTN SHREVEPORT CLOUDY    60  57  89 W8        29.93S

$$

LAZ014-016-211600-
NORTHEAST LOUISIANA

CITY           SKY/WX    TMP DP  RH WIND       PRES   REMARKS
MONROE         CLOUDY    60  57  89 W10       29.93R
TALLULAH       CLOUDY    60  57  89 VRB3      29.94R

$$




USA.gov is the U.S. government's official web portal to all federal, state and local government web resources and services.